Time,TemperatureF,DewpointF,PressureIn,WindDirection,WindDirectionDegrees,WindSpeedMPH,WindSpeedGustMPH,Humidity,HourlyPrecipIn,Conditions,Clouds,dailyrainin,SoftwareType,DateUTC
2013-07-22 00:12:00,67.0,66.0,29.88,SW,227,0.0,-999.0,95,-99.99,,,0.00,weatherlink.com 1.10,2013-07-22 04:12:00,
2013-07-22 00:27:00,66.8,65.0,29.89,SW,227,0.0,-999.0,95,-99.99,,,0.00,weatherlink.com 1.10,2013-07-22 04:27:00,
2013-07-22 00:42:00,66.6,65.0,29.89,SW,227,0.0,-999.0,95,-99.99,,,0.00,weatherlink.com 1.10,2013-07-22 04:42:00,
2013-07-22 00:57:00,66.3,65.0,29.88,SW,227,0.0,-999.0,95,-99.99,,,0.00,weatherlink.com 1.10,2013-07-22 04:57:00,
2013-07-22 01:12:00,65.8,64.0,29.88,SW,227,0.0,-999.0,95,-99.99,,,0.00,weatherlink.com 1.10,2013-07-22 05:12:00,
2013-07-22 01:27:00,65.8,65.0,29.88,SW,227,0.0,-999.0,96,-99.99,,,0.00,weatherlink.com 1.10,2013-07-22 05:27:00,
2013-07-22 01:42:00,65.9,65.0,29.87,SW,227,0.0,-999.0,96,-99.99,,,0.00,weatherlink.com 1.10,2013-07-22 05:42:00,
2013-07-22 01:57:00,65.9,65.0,29.87,SW,227,0.0,-999.0,96,-99.99,,,0.00,weatherlink.com 1.10,2013-07-22 05:57:00,
2013-07-22 02:12:00,65.9,65.0,29.87,SW,227,0.0,-999.0,96,-99.99,,,0.00,weatherlink.com 1.10,2013-07-22 06:12:00,
2013-07-22 02:27:00,65.9,65.0,29.88,SW,227,0.0,-999.0,96,-99.99,,,0.00,weatherlink.com 1.10,2013-07-22 06:27:00,
2013-07-22 02:42:00,66.2,65.0,29.87,SW,227,0.0,-999.0,96,-99.99,,,0.00,weatherlink.com 1.10,2013-07-22 06:42:00,
2013-07-22 02:57:00,66.3,65.0,29.87,SW,227,0.0,-999.0,96,-99.99,,,0.00,weatherlink.com 1.10,2013-07-22 06:57:00,
2013-07-22 03:12:00,66.5,65.0,29.87,SW,227,0.0,-999.0,96,-99.99,,,0.00,weatherlink.com 1.10,2013-07-22 07:12:00,
2013-07-22 03:27:00,66.6,66.0,29.86,SW,227,0.0,-999.0,96,-99.99,,,0.00,weatherlink.com 1.10,2013-07-22 07:27:00,
2013-07-22 03:42:00,66.8,66.0,29.86,SW,227,0.0,-999.0,96,-99.99,,,0.00,weatherlink.com 1.10,2013-07-22 07:42:00,
2013-07-22 03:57:00,67.0,66.0,29.87,SW,227,0.0,-999.0,96,-99.99,,,0.00,weatherlink.com 1.10,2013-07-22 07:57:00,
2013-07-22 04:12:00,67.2,66.0,29.87,SW,227,0.0,-999.0,97,-99.99,,,0.00,weatherlink.com 1.10,2013-07-22 08:12:00,
2013-07-22 04:27:00,67.4,67.0,29.87,SW,227,0.0,-999.0,97,-99.99,,,0.00,weatherlink.com 1.10,2013-07-22 08:27:00,
2013-07-22 04:42:00,67.6,67.0,29.88,SW,227,0.0,-999.0,97,-99.99,,,0.00,weatherlink.com 1.10,2013-07-22 08:42:00,
2013-07-22 04:57:00,67.5,66.0,29.88,NNE,30,0.0,-999.0,96,-99.99,,,0.00,weatherlink.com 1.10,2013-07-22 08:57:00,
2013-07-22 05:12:00,67.5,66.0,29.88,NNE,30,0.0,-999.0,96,-99.99,,,0.00,weatherlink.com 1.10,2013-07-22 09:12:00,
2013-07-22 05:27:00,67.6,67.0,29.89,NNE,30,0.0,-999.0,96,-99.99,,,0.00,weatherlink.com 1.10,2013-07-22 09:27:00,
2013-07-22 05:42:00,67.6,67.0,29.89,NNE,30,0.0,-999.0,97,-99.99,,,0.00,weatherlink.com 1.10,2013-07-22 09:42:00,
2013-07-22 05:57:00,67.6,67.0,29.89,NNE,30,0.0,-999.0,96,-99.99,,,0.00,weatherlink.com 1.10,2013-07-22 09:57:00,
2013-07-22 06:12:00,67.6,67.0,29.88,NE,42,0.0,-999.0,97,-99.99,,,0.00,weatherlink.com 1.10,2013-07-22 10:12:00,
2013-07-22 06:27:00,67.5,67.0,29.89,NNE,17,0.0,-999.0,97,-99.99,,,0.00,weatherlink.com 1.10,2013-07-22 10:27:00,
2013-07-22 06:42:00,67.5,67.0,29.89,NE,35,0.0,-999.0,97,-99.99,,,0.00,weatherlink.com 1.10,2013-07-22 10:42:00,
2013-07-22 06:57:00,67.6,67.0,29.89,NE,36,0.0,-999.0,97,-99.99,,,0.00,weatherlink.com 1.10,2013-07-22 10:57:00,
2013-07-22 07:12:00,67.9,67.0,29.89,NNE,29,0.0,-999.0,97,-99.99,,,0.00,weatherlink.com 1.10,2013-07-22 11:12:00,
2013-07-22 07:27:00,67.9,67.0,29.89,NNE,26,0.0,-999.0,97,-99.99,,,0.00,weatherlink.com 1.10,2013-07-22 11:27:00,
2013-07-22 07:42:00,68.1,67.0,29.89,NE,44,0.0,-999.0,97,-99.99,,,0.00,weatherlink.com 1.10,2013-07-22 11:42:00,
2013-07-22 07:57:00,68.1,67.0,29.89,ENE,59,0.0,-999.0,97,-99.99,,,0.00,weatherlink.com 1.10,2013-07-22 11:57:00,
2013-07-22 08:12:00,68.5,68.0,29.89,NNE,24,0.0,-999.0,97,-99.99,,,0.00,weatherlink.com 1.10,2013-07-22 12:12:00,
2013-07-22 08:27:00,68.8,68.0,29.90,NNE,30,0.0,-999.0,97,-99.99,,,0.00,weatherlink.com 1.10,2013-07-22 12:27:00,
2013-07-22 08:42:00,69.0,68.0,29.90,North,5,0.0,-999.0,97,-99.99,,,0.00,weatherlink.com 1.10,2013-07-22 12:42:00,
2013-07-22 08:57:00,69.1,68.0,29.91,NNE,17,0.0,-999.0,97,-99.99,,,0.00,weatherlink.com 1.10,2013-07-22 12:57:00,
2013-07-22 09:12:00,69.4,68.0,29.90,North,360,0.0,-999.0,96,-99.99,,,0.00,weatherlink.com 1.10,2013-07-22 13:12:00,
2013-07-22 09:27:00,69.3,68.0,29.90,ENE,66,0.0,-999.0,96,-99.99,,,0.00,weatherlink.com 1.10,2013-07-22 13:27:00,
2013-07-22 09:42:00,69.5,68.0,29.90,NE,44,0.0,-999.0,96,-99.99,,,0.00,weatherlink.com 1.10,2013-07-22 13:42:00,
2013-07-22 09:57:00,69.4,68.0,29.91,East,88,0.0,-999.0,96,-99.99,,,0.00,weatherlink.com 1.10,2013-07-22 13:57:00,
2013-07-22 10:12:00,69.1,68.0,29.92,East,86,0.0,-999.0,95,-99.99,,,0.00,weatherlink.com 1.10,2013-07-22 14:12:00,
2013-07-22 10:27:00,69.1,68.0,29.92,NNE,18,0.0,-999.0,95,-99.99,,,0.00,weatherlink.com 1.10,2013-07-22 14:27:00,
2013-07-22 10:42:00,69.2,68.0,29.92,East,90,0.0,-999.0,95,-99.99,,,0.00,weatherlink.com 1.10,2013-07-22 14:42:00,
2013-07-22 10:57:00,69.2,68.0,29.92,NNE,26,0.0,-999.0,95,-99.99,,,0.00,weatherlink.com 1.10,2013-07-22 14:57:00,
2013-07-22 11:12:00,69.3,68.0,29.92,ENE,78,0.0,-999.0,95,-99.99,,,0.00,weatherlink.com 1.10,2013-07-22 15:12:00,
2013-07-22 11:27:00,69.8,68.0,29.92,East,82,0.0,-999.0,94,-99.99,,,0.00,weatherlink.com 1.10,2013-07-22 15:27:00,
2013-07-22 11:42:00,70.1,68.0,29.92,East,85,0.0,-999.0,94,-99.99,,,0.00,weatherlink.com 1.10,2013-07-22 15:42:00,
2013-07-22 11:57:00,70.2,68.0,29.92,NNE,13,0.0,-999.0,92,-99.99,,,0.00,weatherlink.com 1.10,2013-07-22 15:57:00,
2013-07-22 12:12:00,70.3,68.0,29.92,North,360,0.0,-999.0,92,-99.99,,,0.00,weatherlink.com 1.10,2013-07-22 16:12:00,
2013-07-22 12:27:00,71.2,69.0,29.91,NNE,15,0.0,-999.0,91,-99.99,,,0.00,weatherlink.com 1.10,2013-07-22 16:27:00,
2013-07-22 12:42:00,71.6,69.0,29.90,East,86,0.0,-999.0,90,-99.99,,,0.00,weatherlink.com 1.10,2013-07-22 16:42:00,
2013-07-22 12:57:00,72.4,69.0,29.90,SE,132,0.0,-999.0,88,-99.99,,,0.00,weatherlink.com 1.10,2013-07-22 16:57:00,
2013-07-22 13:12:00,73.5,70.0,29.89,SE,132,0.0,-999.0,87,-99.99,,,0.00,weatherlink.com 1.10,2013-07-22 17:12:00,
2013-07-22 13:27:00,74.4,69.0,29.88,North,360,0.0,-999.0,84,-99.99,,,0.00,weatherlink.com 1.10,2013-07-22 17:27:00,
2013-07-22 13:42:00,75.9,70.0,29.88,ENE,61,0.0,-999.0,82,-99.99,,,0.00,weatherlink.com 1.10,2013-07-22 17:42:00,
2013-07-22 13:57:00,76.4,70.0,29.88,East,86,0.0,-999.0,81,-99.99,,,0.00,weatherlink.com 1.10,2013-07-22 17:57:00,
2013-07-22 14:12:00,76.1,69.0,29.87,North,360,0.0,-999.0,79,-99.99,,,0.00,weatherlink.com 1.10,2013-07-22 18:12:00,
2013-07-22 14:27:00,75.8,69.0,29.87,ESE,109,0.0,-999.0,80,-99.99,,,0.00,weatherlink.com 1.10,2013-07-22 18:27:00,
2013-07-22 14:42:00,75.9,69.0,29.87,East,91,0.0,-999.0,80,-99.99,,,0.00,weatherlink.com 1.10,2013-07-22 18:42:00,
2013-07-22 14:57:00,76.2,70.0,29.87,ESE,113,0.0,-999.0,80,-99.99,,,0.00,weatherlink.com 1.10,2013-07-22 18:57:00,
2013-07-22 15:12:00,75.3,69.0,29.87,NE,45,0.0,-999.0,80,-99.99,,,0.00,weatherlink.com 1.10,2013-07-22 19:12:00,
2013-07-22 15:27:00,75.3,68.0,29.86,NE,45,0.0,-999.0,78,-99.99,,,0.00,weatherlink.com 1.10,2013-07-22 19:27:00,
2013-07-22 15:42:00,75.9,68.0,29.87,NE,52,0.0,-999.0,76,-99.99,,,0.00,weatherlink.com 1.10,2013-07-22 19:42:00,
2013-07-22 15:57:00,74.9,67.0,29.86,East,81,0.0,-999.0,76,-99.99,,,0.00,weatherlink.com 1.10,2013-07-22 19:57:00,
2013-07-22 16:27:00,74.4,68.0,29.86,ENE,65,0.0,-999.0,79,-99.99,,,0.00,weatherlink.com 1.10,2013-07-22 20:27:00,
2013-07-22 16:42:00,74.3,67.0,29.86,ESE,105,0.0,-999.0,77,-99.99,,,0.00,weatherlink.com 1.10,2013-07-22 20:42:00,
2013-07-22 16:57:00,73.3,66.0,29.85,East,90,0.0,-999.0,78,-99.99,,,0.00,weatherlink.com 1.10,2013-07-22 20:57:00,
2013-07-22 17:12:00,72.6,66.0,29.85,SSW,209,0.0,-999.0,80,-99.99,,,0.00,weatherlink.com 1.10,2013-07-22 21:12:00,
2013-07-22 17:27:00,72.6,67.0,29.84,SSE,167,0.0,-999.0,81,-99.99,,,0.00,weatherlink.com 1.10,2013-07-22 21:27:00,
2013-07-22 17:42:00,72.0,66.0,29.84,NE,49,0.0,-999.0,80,-99.99,,,0.00,weatherlink.com 1.10,2013-07-22 21:42:00,
2013-07-22 17:57:00,71.8,66.0,29.84,East,88,0.0,-999.0,81,-99.99,,,0.00,weatherlink.com 1.10,2013-07-22 21:57:00,
2013-07-22 18:12:00,71.4,66.0,29.83,ENE,74,0.0,-999.0,83,-99.99,,,0.00,weatherlink.com 1.10,2013-07-22 22:12:00,
2013-07-22 18:27:00,71.0,66.0,29.83,ENE,76,0.0,-999.0,84,-99.99,,,0.00,weatherlink.com 1.10,2013-07-22 22:27:00,
2013-07-22 18:42:00,70.5,66.0,29.83,East,93,0.0,-999.0,86,-99.99,,,0.00,weatherlink.com 1.10,2013-07-22 22:42:00,
2013-07-22 18:57:00,70.2,66.0,29.83,East,98,0.0,-999.0,87,-99.99,,,0.00,weatherlink.com 1.10,2013-07-22 22:57:00,
2013-07-22 19:12:00,69.9,66.0,29.82,ESE,121,0.0,-999.0,87,-99.99,,,0.00,weatherlink.com 1.10,2013-07-22 23:12:00,
2013-07-22 19:27:00,69.7,66.0,29.83,ENE,63,0.0,-999.0,88,-99.99,,,0.00,weatherlink.com 1.10,2013-07-22 23:27:00,
2013-07-22 19:42:00,69.5,66.0,29.83,ENE,73,0.0,-999.0,89,-99.99,,,0.00,weatherlink.com 1.10,2013-07-22 23:42:00,
2013-07-22 19:57:00,69.2,66.0,29.82,ENE,76,0.0,-999.0,89,-99.99,,,0.00,weatherlink.com 1.10,2013-07-22 23:57:00,
2013-07-22 20:12:00,69.1,66.0,29.82,ESE,108,0.0,-999.0,90,-99.99,,,0.00,weatherlink.com 1.10,2013-07-23 00:12:00,
2013-07-22 20:27:00,69.1,66.0,29.82,ENE,58,0.0,-999.0,90,-99.99,,,0.00,weatherlink.com 1.10,2013-07-23 00:27:00,
2013-07-22 20:42:00,69.2,67.0,29.82,SE,129,0.0,-999.0,91,-99.99,,,0.00,weatherlink.com 1.10,2013-07-23 00:42:00,
2013-07-22 20:57:00,69.2,67.0,29.82,ENE,78,0.0,-999.0,91,-99.99,,,0.00,weatherlink.com 1.10,2013-07-23 00:57:00,
2013-07-22 21:12:00,69.2,67.0,29.83,NE,45,0.0,-999.0,91,-99.99,,,0.00,weatherlink.com 1.10,2013-07-23 01:12:00,
2013-07-22 21:27:00,69.2,67.0,29.83,ENE,63,0.0,-999.0,91,-99.99,,,0.00,weatherlink.com 1.10,2013-07-23 01:27:00,
2013-07-22 21:42:00,69.1,66.0,29.82,East,84,0.0,-999.0,91,-99.99,,,0.00,weatherlink.com 1.10,2013-07-23 01:42:00,
2013-07-22 21:57:00,69.1,67.0,29.82,ENE,57,0.0,-999.0,92,-99.99,,,0.00,weatherlink.com 1.10,2013-07-23 01:57:00,
2013-07-22 22:12:00,69.0,66.0,29.82,East,94,0.0,-999.0,91,-99.99,,,0.00,weatherlink.com 1.10,2013-07-23 02:12:00,
2013-07-22 22:27:00,68.9,66.0,29.81,NE,35,0.0,-999.0,91,-99.99,,,0.00,weatherlink.com 1.10,2013-07-23 02:27:00,
2013-07-22 22:42:00,68.9,66.0,29.80,ENE,78,0.0,-999.0,91,-99.99,,,0.00,weatherlink.com 1.10,2013-07-23 02:42:00,
2013-07-22 22:57:00,68.9,67.0,29.80,East,94,0.0,-999.0,92,-99.99,,,0.00,weatherlink.com 1.10,2013-07-23 02:57:00,
2013-07-22 23:12:00,68.9,67.0,29.80,East,89,0.0,-999.0,92,-99.99,,,0.00,weatherlink.com 1.10,2013-07-23 03:12:00,
2013-07-22 23:27:00,68.8,66.0,29.80,East,94,0.0,-999.0,92,-99.99,,,0.00,weatherlink.com 1.10,2013-07-23 03:27:00,
2013-07-22 23:42:00,68.8,67.0,29.80,ENE,71,0.0,-999.0,93,-99.99,,,0.00,weatherlink.com 1.10,2013-07-23 03:42:00,
2013-07-22 23:57:00,68.8,67.0,29.79,ENE,61,0.0,-999.0,93,-99.99,,,0.00,weatherlink.com 1.10,2013-07-23 03:57:00,